Location: Unspecified
(0.0000°N, 0.0000°E)
Time: 13:20:49
(UTC+00:00)

Amsat-Oscar-8 - Pass Details

Date: 05 June 2023
Orbit: 890 x 901 km, 99.2° (Epoch: 21 September)

Event Time Altitude Azimuth Distance (km) Brightness Sun altitude
Rises 02:52:17 0° 20° (NNE) 3,493 12.5 -42.1°
Reaches altitude 10° 02:54:42 10° 24° (NNE) 2,557 11.7 -41.6°
Enters shadow 02:56:28 21° 29° (NNE) 1,900 10.9 -41.2°
